Spokane, WA

8:07 AM PDT on June 23, 2017 (GMT -0700)
Spokane International

Weather History for KGEG - September, 2011

Change the Weather History Date:

Saturday, September 3, 2011

  Actual Average Record
Temperature  
Mean Temperature 61 °F 65 °F  
Max Temperature 76 °F 78 °F 98 °F (1988)
Min Temperature 46 °F 52 °F 39 °F (1980)
Degree Days  
Heating Degree Days 4 3  
Month to date heating degree days 16 9  
Since 1 July heating degree days 64 74  
Cooling Degree Days 0 2  
Month to date cooling degree days 0 8  
Year to date cooling degree days 321 419  
Growing Degree Days 12 (Base 50)    
Moisture  
Dew Point 34 °F    
Average Humidity 40    
Maximum Humidity 61    
Minimum Humidity 18    
Precipitation  
Precipitation 0.00 in 0.02 in 0.45 in (1887)
Month to date precipitation 0.00 0.06  
Year to date precipitation 11.79 10.17  
Snow  
Snow 0.00 in 0.00 in 0.00 in (2002)
Month to date snowfall 0.0 0.0  
Since 1 July snowfall 0.0 0.0  
Since 1 September snowfall 0.0 0.0  
Snow Depth 0.00 in    
Sea Level Pressure  
Sea Level Pressure 30.17 in    
Wind  
Wind Speed 5 mph (NNE)    
Max Wind Speed 12 mph    
Max Gust Speed 15 mph    
Visibility 10 miles    
Events      
T = Trace of Precipitation, MM = Missing Value Source: NWS Daily Summary

Daily Weather History Graph

Daily Weather History Graph

Search for Another Location

Airport or City:

Trip Planner

Search our weather history database for the weather conditions in past years. The results will help you decide how hot, cold, wet, or windy it might be!

Date:

Astronomy

Sep. 03, 2011 Rise Set
Actual Time 6:11 AM PDT 7:26 PM PDT
Civil Twilight 5:39 AM PDT 7:58 PM PDT
Nautical Twilight 5:00 AM PDT 8:36 PM PDT
Astronomical Twilight 4:19 AM PDT 9:17 PM PDT
Moon 1:32 PM PDT (9/3) 10:19 PM PDT (9/3)
Length of Visible Light 14h 19m
Length of Day
13h 15m
Waxing Crescent, 39% of the Moon is Illuminated
Sep 3
Waxing Crescent
Sep 4
First Quarter
Sep 12
Full
Sep 20
Last Quarter
Sep 27
New

Hourly Weather History & Observations

Time (PDT) Temp. Dew Point Humidity Pressure Visibility Wind Dir Wind Speed Gust Speed Precip Events Conditions
12:53 AM 52.0 °F 33.1 °F 49% 30.22 in 10.0 mi Calm Calm - N/A   Clear
1:53 AM 55.0 °F 33.1 °F 43% 30.21 in 10.0 mi Calm Calm - N/A   Clear
2:53 AM 48.0 °F 34.0 °F 58% 30.22 in 10.0 mi West 3.5 mph - N/A   Clear
3:53 AM 48.9 °F 34.0 °F 56% 30.22 in 10.0 mi North 3.5 mph - N/A   Clear
4:53 AM 50.0 °F 33.8 °F 54% 30.24 in 10.0 mi ENE 3.5 mph - N/A   Clear
5:53 AM 48.0 °F 34.0 °F 58% 30.23 in 10.0 mi NE 3.5 mph - N/A   Clear
6:53 AM 48.0 °F 35.1 °F 61% 30.23 in 10.0 mi NNE 4.6 mph - N/A   Clear
7:53 AM 52.0 °F 36.0 °F 54% 30.23 in 10.0 mi NNE 9.2 mph - N/A   Clear
8:53 AM 55.0 °F 36.0 °F 49% 30.24 in 10.0 mi NNE 8.1 mph - N/A   Clear
9:53 AM 59.0 °F 35.6 °F 42% 30.25 in 10.0 mi NE 8.1 mph - N/A   Clear
10:53 AM 62.1 °F 36.0 °F 38% 30.24 in 10.0 mi NE 8.1 mph - N/A   Clear
11:53 AM 68.0 °F 37.0 °F 32% 30.22 in 10.0 mi NE 5.8 mph - N/A   Clear
12:53 PM 71.1 °F 30.0 °F 22% 30.20 in 10.0 mi ENE 6.9 mph - N/A   Clear
1:53 PM 72.0 °F 32.0 °F 23% 30.18 in 10.0 mi NNE 5.8 mph - N/A   Clear
2:53 PM 73.0 °F 32.0 °F 22% 30.16 in 10.0 mi Variable 5.8 mph - N/A   Clear
3:53 PM 73.9 °F 30.0 °F 20% 30.14 in 10.0 mi NNE 6.9 mph - N/A   Clear
4:53 PM 75.0 °F 28.9 °F 18% 30.12 in 10.0 mi North 6.9 mph - N/A   Clear
5:53 PM 75.0 °F 30.9 °F 20% 30.11 in 10.0 mi North 8.1 mph - N/A   Clear
6:53 PM 73.0 °F 33.1 °F 23% 30.09 in 10.0 mi NNE 4.6 mph - N/A   Clear
7:53 PM 66.9 °F 34.0 °F 30% 30.09 in 10.0 mi North 4.6 mph - N/A   Partly Cloudy
8:53 PM 64.9 °F 33.1 °F 31% 30.09 in 10.0 mi Calm Calm - N/A   Partly Cloudy
9:53 PM 63.0 °F 33.1 °F 33% 30.09 in 10.0 mi Calm Calm - N/A   Clear
10:53 PM 59.0 °F 36.0 °F 42% 30.08 in 10.0 mi Calm Calm - N/A   Clear
11:53 PM 57.9 °F 35.1 °F 42% 30.07 in 10.0 mi Calm Calm - N/A   Clear